New Castle, NH (03854)

1:26 PM EDT on July 22, 2017 (GMT -0400)
KPV | | Change Station

Elev 40 ft 43.08 °N, 70.71 °W | Updated 10 seconds ago

Mostly Cloudy
Mostly Cloudy
83.8 °F
Feels Like 89 °F
N
0.0
Wind Variable Wind from WSW
Gusts 0.0 mph

Today
High -- | Low -- °F
--% Chance of Precip.
Yesterday
High -- | Low -- °F
Precip. -- in
Pressure 29.84 in
Visibility 10.0 miles
Clouds Few 7000 ft
Scattered Clouds 13000 ft
Mostly Cloudy 19000 ft
Overcast 25000 ft
Heat Index 89 °F
Dew Point 71 °F
Humidity 65%
Rainfall 0.00 in
Snow Depth Not available.
5:23 AM 8:14 PM
Waning Crescent, 1% visible
METAR KPSM 221658Z 23006KT 10SM FEW070 SCT130 BKN190 OVC250 27/18 A2983 RMK AO2A SLP103 T02700179
Pressure 29.84 in
Visibility 10.0 miles
Clouds Few 7000 ft
Scattered Clouds 13000 ft
Mostly Cloudy 19000 ft
Overcast 25000 ft
Heat Index 89 °F
Dew Point 71 °F
Humidity 65%
Rainfall 0.00 in
Snow Depth Not available.
5:23 AM 8:14 PM
Waning Crescent, 1% visible
METAR KPSM 221658Z 23006KT 10SM FEW070 SCT130 BKN190 OVC250 27/18 A2983 RMK AO2A SLP103 T02700179

Get Severe Weather Alerts

Thanks for signing up!

Be on the lookout for a verification email in your inbox.

You'll start receiving the daily forecast at 6 AM.

×

10-Day Weather Forecast

Almanac

Astronomy

Jul. 22, 2017 Rise Set
Actual Time
Civil Twilight
Nautical Twilight
Astronomical Twilight
Moon
Length of Visible Light
Length of Day
Tomorrow will be .
, % of the Moon is Illuminated

Today's Extremes

State Highs State Lows

Community

WunderPhotos

Category 6

Welcome to Category 6. This is the collective home for Weather Underground's featured writeups by Dr. Jeff Masters (right), Bob Henson (left), Chris Burt, and other regular contributors.

Nearby

Air Quality

  Air Quality AQ Index Pollutant
Not available.

Snow Depth

Station Depth Elevation

Earthquake Activity

City Distance Mag. Time & Date
Minimum magnitude displayed is 2.5.

Coastal Water Temperatures

Place Temperature

Stations

Nearby Weather Stations

Station Location Temp. Windchill Dew Point Humidity Wind Precip. Elev Updated Type
                   

Watches & Warnings

There are currently no watches in effect.